Year,Month,Day,Hour,Minute,Value (Times are PST for temperature in C)
2014,04,09,00,00,5.70
2014,04,09,00,01,5.70
2014,04,09,00,02,5.60
2014,04,09,00,03,5.60
2014,04,09,00,04,5.60
2014,04,09,00,05,5.60
2014,04,09,00,06,5.60
2014,04,09,00,07,5.60
2014,04,09,00,08,5.60
2014,04,09,00,09,5.50
2014,04,09,00,10,5.50
2014,04,09,00,11,5.50
2014,04,09,00,12,5.50
2014,04,09,00,13,5.40
2014,04,09,00,14,5.40
2014,04,09,00,15,5.40
2014,04,09,00,16,5.40
2014,04,09,00,17,5.40
2014,04,09,00,18,5.30
2014,04,09,00,19,5.30
2014,04,09,00,20,5.30
2014,04,09,00,21,5.30
2014,04,09,00,22,5.20
2014,04,09,00,23,5.20
2014,04,09,00,24,5.10
2014,04,09,00,25,5.10
2014,04,09,00,26,5.10
2014,04,09,00,27,5.00
2014,04,09,00,28,5.00
2014,04,09,00,29,5.00
2014,04,09,00,30,5.00
2014,04,09,00,31,5.00
2014,04,09,00,32,5.00
2014,04,09,00,33,5.00
2014,04,09,00,34,5.10
2014,04,09,00,35,5.10
2014,04,09,00,36,5.00
2014,04,09,00,37,5.00
2014,04,09,00,38,4.90
2014,04,09,00,39,4.90
2014,04,09,00,40,4.90
2014,04,09,00,41,4.90
2014,04,09,00,42,4.90
2014,04,09,00,43,4.90
2014,04,09,00,44,5.00
2014,04,09,00,45,5.00
2014,04,09,00,46,5.00
2014,04,09,00,47,5.00
2014,04,09,00,48,5.00
2014,04,09,00,49,5.00
2014,04,09,00,50,5.00
2014,04,09,00,51,5.10
2014,04,09,00,52,5.10
2014,04,09,00,53,5.10
2014,04,09,00,54,5.10
2014,04,09,00,55,5.20
2014,04,09,00,56,5.20
2014,04,09,00,57,5.20
2014,04,09,00,58,5.20
2014,04,09,00,59,5.30
2014,04,09,01,00,5.30
2014,04,09,01,01,5.40
2014,04,09,01,02,5.40
2014,04,09,01,03,5.40
2014,04,09,01,04,5.40
2014,04,09,01,05,5.40
2014,04,09,01,06,5.40
2014,04,09,01,07,5.40
2014,04,09,01,08,5.50
2014,04,09,01,09,5.60
2014,04,09,01,10,5.60
2014,04,09,01,11,5.60
2014,04,09,01,12,5.70
2014,04,09,01,13,5.70
2014,04,09,01,14,5.70
2014,04,09,01,15,5.70
2014,04,09,01,16,5.70
2014,04,09,01,17,5.70
2014,04,09,01,18,5.70
2014,04,09,01,19,5.70
2014,04,09,01,20,5.70
2014,04,09,01,21,5.70
2014,04,09,01,22,5.70
2014,04,09,01,23,5.70
2014,04,09,01,24,5.70
2014,04,09,01,25,5.70
2014,04,09,01,26,5.60
2014,04,09,01,27,5.60
2014,04,09,01,28,5.60
2014,04,09,01,29,5.60
2014,04,09,01,30,5.60
2014,04,09,01,31,5.50
2014,04,09,01,32,5.50
2014,04,09,01,33,5.50
2014,04,09,01,34,5.50
2014,04,09,01,35,5.50
2014,04,09,01,36,5.50
2014,04,09,01,37,5.60
2014,04,09,01,38,5.60
2014,04,09,01,39,5.60
2014,04,09,01,40,5.70
2014,04,09,01,41,5.70
2014,04,09,01,42,5.70
2014,04,09,01,43,5.70
2014,04,09,01,44,5.70
2014,04,09,01,45,5.70
2014,04,09,01,46,5.70
2014,04,09,01,47,5.60
2014,04,09,01,48,5.60
2014,04,09,01,49,5.60
2014,04,09,01,50,5.60
2014,04,09,01,51,5.60
2014,04,09,01,52,5.60
2014,04,09,01,53,5.60
2014,04,09,01,54,5.60
2014,04,09,01,55,5.50
2014,04,09,01,56,5.50
2014,04,09,01,57,5.50
2014,04,09,01,58,5.50
2014,04,09,01,59,5.50
2014,04,09,02,00,5.50
2014,04,09,02,01,5.50
2014,04,09,02,02,5.40
2014,04,09,02,03,5.40
2014,04,09,02,04,5.40
2014,04,09,02,05,5.40
2014,04,09,02,06,5.30
2014,04,09,02,07,5.30
2014,04,09,02,08,5.30
2014,04,09,02,09,5.20
2014,04,09,02,10,5.20
2014,04,09,02,11,5.20
2014,04,09,02,12,5.20
2014,04,09,02,13,5.10
2014,04,09,02,14,5.10
2014,04,09,02,15,5.10
2014,04,09,02,16,5.10
2014,04,09,02,17,5.10
2014,04,09,02,18,5.10
2014,04,09,02,19,5.10
2014,04,09,02,20,5.10
2014,04,09,02,21,5.10
2014,04,09,02,22,5.10
2014,04,09,02,23,5.20
2014,04,09,02,24,5.20
2014,04,09,02,25,5.20
2014,04,09,02,26,5.20
2014,04,09,02,27,5.20
2014,04,09,02,28,5.20
2014,04,09,02,29,5.20
2014,04,09,02,30,5.20
2014,04,09,02,31,5.10
2014,04,09,02,32,5.10
2014,04,09,02,33,5.10
2014,04,09,02,34,5.00
2014,04,09,02,35,5.00
2014,04,09,02,36,4.90
2014,04,09,02,37,4.90
2014,04,09,02,38,4.90
2014,04,09,02,39,4.90
2014,04,09,02,40,4.80
2014,04,09,02,41,4.80
2014,04,09,02,42,4.80
2014,04,09,02,43,4.80
2014,04,09,02,44,4.80
2014,04,09,02,45,4.80
2014,04,09,02,46,4.80
2014,04,09,02,47,4.80
2014,04,09,02,48,4.80
2014,04,09,02,49,4.80
2014,04,09,02,50,4.80
2014,04,09,02,51,4.70
2014,04,09,02,52,4.70
2014,04,09,02,53,4.70
2014,04,09,02,54,4.70
2014,04,09,02,55,4.80
2014,04,09,02,56,4.80
2014,04,09,02,57,4.80
2014,04,09,02,58,4.80
2014,04,09,02,59,4.80
2014,04,09,03,00,4.80
2014,04,09,03,01,4.80
2014,04,09,03,02,4.80
2014,04,09,03,03,4.80
2014,04,09,03,04,4.80
2014,04,09,03,05,4.80
2014,04,09,03,06,4.80
2014,04,09,03,07,4.80
2014,04,09,03,08,4.80
2014,04,09,03,09,4.80
2014,04,09,03,10,4.70
2014,04,09,03,11,4.70
2014,04,09,03,12,4.70
2014,04,09,03,13,4.80
2014,04,09,03,14,4.80
2014,04,09,03,15,4.80
2014,04,09,03,16,4.80
2014,04,09,03,17,4.70
2014,04,09,03,18,4.70
2014,04,09,03,19,4.70
2014,04,09,03,20,4.70
2014,04,09,03,21,4.70
2014,04,09,03,22,4.80
2014,04,09,03,23,4.90
2014,04,09,03,24,4.90
2014,04,09,03,25,4.90
2014,04,09,03,26,4.70
2014,04,09,03,27,4.70
2014,04,09,03,28,4.70
2014,04,09,03,29,4.70
2014,04,09,03,30,4.70
2014,04,09,03,31,4.70
2014,04,09,03,32,4.60
2014,04,09,03,33,4.70
2014,04,09,03,34,4.70
2014,04,09,03,35,4.70
2014,04,09,03,36,4.70
2014,04,09,03,37,4.70
2014,04,09,03,38,4.70
2014,04,09,03,39,4.70
2014,04,09,03,40,4.70
2014,04,09,03,41,4.70
2014,04,09,03,42,4.60
2014,04,09,03,43,4.60
2014,04,09,03,44,4.70
2014,04,09,03,45,4.70
2014,04,09,03,46,4.70
2014,04,09,03,47,4.70
2014,04,09,03,48,4.60
2014,04,09,03,49,4.60
2014,04,09,03,50,4.60
2014,04,09,03,51,4.60
2014,04,09,03,52,4.50
2014,04,09,03,53,4.50
2014,04,09,03,54,4.50
2014,04,09,03,55,4.50
2014,04,09,03,56,4.40
2014,04,09,03,57,4.40
2014,04,09,03,58,4.40
2014,04,09,03,59,4.40
2014,04,09,04,00,4.40
2014,04,09,04,01,4.40
2014,04,09,04,02,4.40
2014,04,09,04,03,4.40
2014,04,09,04,04,4.40
2014,04,09,04,05,4.40
2014,04,09,04,06,4.40
2014,04,09,04,07,4.40
2014,04,09,04,08,4.30
2014,04,09,04,09,4.30
2014,04,09,04,10,4.30
2014,04,09,04,11,4.30
2014,04,09,04,12,4.30
2014,04,09,04,13,4.40
2014,04,09,04,14,4.40
2014,04,09,04,15,4.40
2014,04,09,04,16,4.30
2014,04,09,04,17,4.30
2014,04,09,04,18,4.30
2014,04,09,04,19,4.30
2014,04,09,04,20,4.30
2014,04,09,04,21,4.30
2014,04,09,04,22,4.30
2014,04,09,04,23,4.30
2014,04,09,04,24,4.30
2014,04,09,04,25,4.30
2014,04,09,04,26,4.30
2014,04,09,04,27,4.30
2014,04,09,04,28,4.30
2014,04,09,04,29,4.20
2014,04,09,04,30,4.20
2014,04,09,04,31,4.20
2014,04,09,04,32,4.10
2014,04,09,04,33,4.10
2014,04,09,04,34,4.10
2014,04,09,04,35,4.20
2014,04,09,04,36,4.20
2014,04,09,04,37,4.20
2014,04,09,04,38,4.30
2014,04,09,04,39,4.30
2014,04,09,04,40,4.40
2014,04,09,04,41,4.40
2014,04,09,04,42,4.40
2014,04,09,04,43,4.40
2014,04,09,04,44,4.50
2014,04,09,04,45,4.50
2014,04,09,04,46,4.50
2014,04,09,04,47,4.50
2014,04,09,04,48,4.50
2014,04,09,04,49,4.50
2014,04,09,04,50,4.50
2014,04,09,04,51,4.50
2014,04,09,04,52,4.50
2014,04,09,04,53,4.50
2014,04,09,04,54,4.50
2014,04,09,04,55,4.50
2014,04,09,04,56,4.50
2014,04,09,04,57,4.50
2014,04,09,04,58,4.40
2014,04,09,04,59,4.40
2014,04,09,05,00,4.40
2014,04,09,05,01,4.40
2014,04,09,05,02,4.40
2014,04,09,05,03,4.40
2014,04,09,05,04,4.40
2014,04,09,05,05,4.40
2014,04,09,05,06,4.40
2014,04,09,05,07,4.40
2014,04,09,05,08,4.40
2014,04,09,05,09,4.40
2014,04,09,05,10,4.40
2014,04,09,05,11,4.40
2014,04,09,05,12,4.40
2014,04,09,05,13,4.40
2014,04,09,05,14,4.40
2014,04,09,05,15,4.40
2014,04,09,05,16,4.40
2014,04,09,05,17,4.30
2014,04,09,05,18,4.30
2014,04,09,05,19,4.30
2014,04,09,05,20,4.30
2014,04,09,05,21,4.30
2014,04,09,05,22,4.30
2014,04,09,05,23,4.30
2014,04,09,05,24,4.30
2014,04,09,05,25,4.30
2014,04,09,05,26,4.30
2014,04,09,05,27,4.30
2014,04,09,05,28,4.30
2014,04,09,05,29,4.30
2014,04,09,05,30,4.30
2014,04,09,05,31,4.30
2014,04,09,05,32,4.30
2014,04,09,05,33,4.30
2014,04,09,05,34,4.30
2014,04,09,05,35,4.30
2014,04,09,05,36,4.30
2014,04,09,05,37,4.30
2014,04,09,05,38,4.30
2014,04,09,05,39,4.30
2014,04,09,05,40,4.20
2014,04,09,05,41,4.20
2014,04,09,05,42,4.20
2014,04,09,05,43,4.20
2014,04,09,05,44,4.20
2014,04,09,05,45,4.20
2014,04,09,05,46,4.20
2014,04,09,05,47,4.20
2014,04,09,05,48,4.20
2014,04,09,05,49,4.20
2014,04,09,05,50,4.20
2014,04,09,05,51,4.30
2014,04,09,05,52,4.30
2014,04,09,05,53,4.30
2014,04,09,05,54,4.30
2014,04,09,05,55,4.30
2014,04,09,05,56,4.40
2014,04,09,05,57,4.40
2014,04,09,05,58,4.40
2014,04,09,05,59,4.40
2014,04,09,06,00,4.40
2014,04,09,06,01,4.40
2014,04,09,06,02,4.40
2014,04,09,06,03,4.40
2014,04,09,06,04,4.40
2014,04,09,06,05,4.40
2014,04,09,06,06,4.40
2014,04,09,06,07,4.40
2014,04,09,06,08,4.40
2014,04,09,06,09,4.40
2014,04,09,06,10,4.40
2014,04,09,06,11,4.40
2014,04,09,06,12,4.40
2014,04,09,06,13,4.50
2014,04,09,06,14,4.50
2014,04,09,06,15,4.50
2014,04,09,06,16,4.50
2014,04,09,06,17,4.50
2014,04,09,06,18,4.50
2014,04,09,06,19,4.50
2014,04,09,06,20,4.50
2014,04,09,06,21,4.50
2014,04,09,06,22,4.50
2014,04,09,06,23,4.50
2014,04,09,06,24,4.50
2014,04,09,06,25,4.50
2014,04,09,06,26,4.50
2014,04,09,06,27,4.60
2014,04,09,06,28,4.60
2014,04,09,06,29,4.60
2014,04,09,06,30,4.60
2014,04,09,06,31,4.60
2014,04,09,06,32,4.60
2014,04,09,06,33,4.60
2014,04,09,06,34,4.60
2014,04,09,06,35,4.60
2014,04,09,06,36,4.60
2014,04,09,06,37,4.60
2014,04,09,06,38,4.60
2014,04,09,06,39,4.60
2014,04,09,06,40,4.60
2014,04,09,06,41,4.60
2014,04,09,06,42,4.60
2014,04,09,06,43,4.60
2014,04,09,06,44,4.60
2014,04,09,06,45,4.60
2014,04,09,06,46,4.60
2014,04,09,06,47,4.50
2014,04,09,06,48,4.50
2014,04,09,06,49,4.50
2014,04,09,06,50,4.50
2014,04,09,06,51,4.50
2014,04,09,06,52,4.50
2014,04,09,06,53,4.50
2014,04,09,06,54,4.50
2014,04,09,06,55,4.50
2014,04,09,06,56,4.50
2014,04,09,06,57,4.50
2014,04,09,06,58,4.50
2014,04,09,06,59,4.50
2014,04,09,07,00,4.50
2014,04,09,07,01,4.50
2014,04,09,07,02,4.50
2014,04,09,07,03,4.50
2014,04,09,07,04,4.50
2014,04,09,07,05,4.50
2014,04,09,07,06,4.50
2014,04,09,07,07,4.50
2014,04,09,07,08,4.50
2014,04,09,07,09,4.50
2014,04,09,07,10,4.50
2014,04,09,07,11,4.50
2014,04,09,07,12,4.50
2014,04,09,07,13,4.50
2014,04,09,07,14,4.50
2014,04,09,07,15,4.50
2014,04,09,07,16,4.50
2014,04,09,07,17,4.40
2014,04,09,07,18,4.40
2014,04,09,07,19,4.40
2014,04,09,07,20,4.40
2014,04,09,07,21,4.40
2014,04,09,07,22,4.40
2014,04,09,07,23,4.40
2014,04,09,07,24,4.40
2014,04,09,07,25,4.40
2014,04,09,07,26,4.40
2014,04,09,07,27,4.40
2014,04,09,07,28,4.40
2014,04,09,07,29,4.40
2014,04,09,07,30,4.40
2014,04,09,07,31,4.40
2014,04,09,07,32,4.40
2014,04,09,07,33,4.40
2014,04,09,07,34,4.40
2014,04,09,07,35,4.40
2014,04,09,07,36,4.40
2014,04,09,07,37,4.40
2014,04,09,07,38,4.40
2014,04,09,07,39,4.40
2014,04,09,07,40,4.40
2014,04,09,07,41,4.40
2014,04,09,07,42,4.40
2014,04,09,07,43,4.50
2014,04,09,07,44,4.50
2014,04,09,07,45,4.50
2014,04,09,07,46,4.50
2014,04,09,07,47,4.50
2014,04,09,07,48,4.50
2014,04,09,07,49,4.60
2014,04,09,07,50,4.60
2014,04,09,07,51,4.60
2014,04,09,07,52,4.60
2014,04,09,07,53,4.60
2014,04,09,07,54,4.70
2014,04,09,07,55,4.70
2014,04,09,07,56,4.70
2014,04,09,07,57,4.70
2014,04,09,07,58,4.80
2014,04,09,07,59,4.80
2014,04,09,08,00,4.80
2014,04,09,08,01,4.80
2014,04,09,08,02,4.90
2014,04,09,08,03,4.90
2014,04,09,08,04,4.90
2014,04,09,08,05,4.90
2014,04,09,08,06,4.90
2014,04,09,08,07,4.90
2014,04,09,08,08,5.00
2014,04,09,08,09,5.00
2014,04,09,08,10,5.00
2014,04,09,08,11,5.10
2014,04,09,08,12,5.10
2014,04,09,08,13,5.10
2014,04,09,08,14,5.20
2014,04,09,08,15,5.20
2014,04,09,08,16,5.20
2014,04,09,08,17,5.20
2014,04,09,08,18,5.20
2014,04,09,08,19,5.20
2014,04,09,08,20,5.20
2014,04,09,08,21,5.30
2014,04,09,08,22,5.30
2014,04,09,08,23,5.30
2014,04,09,08,24,5.30
2014,04,09,08,25,5.30
2014,04,09,08,26,5.30
2014,04,09,08,27,5.30
2014,04,09,08,28,5.30
2014,04,09,08,29,5.30
2014,04,09,08,30,5.30
2014,04,09,08,31,5.30
2014,04,09,08,32,5.40
2014,04,09,08,33,5.40
2014,04,09,08,34,5.40
2014,04,09,08,35,5.40
2014,04,09,08,36,5.40
2014,04,09,08,37,5.40
2014,04,09,08,38,5.40
2014,04,09,08,39,5.40
2014,04,09,08,40,5.50
2014,04,09,08,41,5.50
2014,04,09,08,42,5.60
2014,04,09,08,43,5.60
2014,04,09,08,44,5.60
2014,04,09,08,45,5.70
2014,04,09,08,46,5.70
2014,04,09,08,47,5.70
2014,04,09,08,48,5.70
2014,04,09,08,49,5.70
2014,04,09,08,50,5.70
2014,04,09,08,51,5.70
2014,04,09,08,52,5.70
2014,04,09,08,53,5.70
2014,04,09,08,54,5.70
2014,04,09,08,55,5.70
2014,04,09,08,56,5.70
2014,04,09,08,57,5.70
2014,04,09,08,58,5.70
2014,04,09,08,59,5.70
2014,04,09,09,00,5.80
2014,04,09,09,01,5.80
2014,04,09,09,02,5.90
2014,04,09,09,03,5.90
2014,04,09,09,04,5.90
2014,04,09,09,05,5.90
2014,04,09,09,06,6.00
2014,04,09,09,07,6.00
2014,04,09,09,08,6.10
2014,04,09,09,09,6.10
2014,04,09,09,10,6.10
2014,04,09,09,11,6.10
2014,04,09,09,12,6.20
2014,04,09,09,13,6.20
2014,04,09,09,14,6.20
2014,04,09,09,15,6.20
2014,04,09,09,16,6.30
2014,04,09,09,17,6.30
2014,04,09,09,18,6.40
2014,04,09,09,19,6.40
2014,04,09,09,20,6.40
2014,04,09,09,21,6.40
2014,04,09,09,22,6.40
2014,04,09,09,23,6.50
2014,04,09,09,24,6.50
2014,04,09,09,25,6.50
2014,04,09,09,26,6.60
2014,04,09,09,27,6.60
2014,04,09,09,28,6.60
2014,04,09,09,29,6.60
2014,04,09,09,30,6.60
2014,04,09,09,31,6.60
2014,04,09,09,32,6.60
2014,04,09,09,33,6.60
2014,04,09,09,34,6.70
2014,04,09,09,35,6.70
2014,04,09,09,36,6.70
2014,04,09,09,37,6.70
2014,04,09,09,38,6.70
2014,04,09,09,39,6.70
2014,04,09,09,40,6.80
2014,04,09,09,41,6.80
2014,04,09,09,42,6.80
2014,04,09,09,43,6.80
2014,04,09,09,44,6.80
2014,04,09,09,45,6.80
2014,04,09,09,46,6.90
2014,04,09,09,47,6.90
2014,04,09,09,48,6.90
2014,04,09,09,49,7.00
2014,04,09,09,50,7.00
2014,04,09,09,51,7.10
2014,04,09,09,52,7.10
2014,04,09,09,53,7.10
2014,04,09,09,54,7.20
2014,04,09,09,55,7.20
2014,04,09,09,56,7.20
2014,04,09,09,57,7.20
2014,04,09,09,58,7.20
2014,04,09,09,59,7.20
2014,04,09,10,00,7.20
2014,04,09,10,01,7.20
2014,04,09,10,02,7.10
2014,04,09,10,03,7.10
2014,04,09,10,04,7.10
2014,04,09,10,05,7.10
2014,04,09,10,06,7.10
2014,04,09,10,07,7.20
2014,04,09,10,08,7.20
2014,04,09,10,09,7.20
2014,04,09,10,10,7.20
2014,04,09,10,11,7.20
2014,04,09,10,12,7.30
2014,04,09,10,13,7.30
2014,04,09,10,14,7.30
2014,04,09,10,15,7.30
2014,04,09,10,16,7.30
2014,04,09,10,17,7.30
2014,04,09,10,18,7.30
2014,04,09,10,19,7.30
2014,04,09,10,20,7.30
2014,04,09,10,21,7.40
2014,04,09,10,22,7.40
2014,04,09,10,23,7.40
2014,04,09,10,24,7.40
2014,04,09,10,25,7.40
2014,04,09,10,26,7.50
2014,04,09,10,27,7.60
2014,04,09,10,28,7.60
2014,04,09,10,29,7.70
2014,04,09,10,30,7.70
2014,04,09,10,31,7.80
2014,04,09,10,32,7.80
2014,04,09,10,33,7.80
2014,04,09,10,34,7.80
2014,04,09,10,35,7.90
2014,04,09,10,36,7.90
2014,04,09,10,37,7.90
2014,04,09,10,38,8.00
2014,04,09,10,39,8.10
2014,04,09,10,40,8.10
2014,04,09,10,41,8.20
2014,04,09,10,42,8.30
2014,04,09,10,43,8.30
2014,04,09,10,44,8.30
2014,04,09,10,45,8.30
2014,04,09,10,46,8.40
2014,04,09,10,47,8.50
2014,04,09,10,48,8.60
2014,04,09,10,49,8.60
2014,04,09,10,50,8.60
2014,04,09,10,51,8.50
2014,04,09,10,52,8.50
2014,04,09,10,53,8.60
2014,04,09,10,54,8.60
2014,04,09,10,55,8.60
2014,04,09,10,56,8.50
2014,04,09,10,57,8.60
2014,04,09,10,58,8.60
2014,04,09,10,59,8.70
2014,04,09,11,00,8.70
2014,04,09,11,01,8.80
2014,04,09,11,02,8.80
2014,04,09,11,03,8.80
2014,04,09,11,04,8.90
2014,04,09,11,05,8.90
2014,04,09,11,06,8.90
2014,04,09,11,07,9.00
2014,04,09,11,08,9.00
2014,04,09,11,09,9.00
2014,04,09,11,10,9.10
2014,04,09,11,11,9.20
2014,04,09,11,12,9.20
2014,04,09,11,13,9.20
2014,04,09,11,14,9.20
2014,04,09,11,15,9.10
2014,04,09,11,16,9.10
2014,04,09,11,17,9.00
2014,04,09,11,18,9.00
2014,04,09,11,19,9.00
2014,04,09,11,20,9.00
2014,04,09,11,21,9.00
2014,04,09,11,22,9.10
2014,04,09,11,23,9.10
2014,04,09,11,24,9.20
2014,04,09,11,25,9.30
2014,04,09,11,26,9.30
2014,04,09,11,27,9.40
2014,04,09,11,28,9.40
2014,04,09,11,29,9.40
2014,04,09,11,30,9.40
2014,04,09,11,31,9.40
2014,04,09,11,32,9.40
2014,04,09,11,33,9.30
2014,04,09,11,34,9.30
2014,04,09,11,35,9.30
2014,04,09,11,36,9.30
2014,04,09,11,37,9.30
2014,04,09,11,38,9.40
2014,04,09,11,39,9.40
2014,04,09,11,40,9.30
2014,04,09,11,41,9.40
2014,04,09,11,42,9.40
2014,04,09,11,43,9.50
2014,04,09,11,44,9.50
2014,04,09,11,45,9.50
2014,04,09,11,46,9.60
2014,04,09,11,47,9.60
2014,04,09,11,48,9.50
2014,04,09,11,49,9.60
2014,04,09,11,50,9.60
2014,04,09,11,51,9.60
2014,04,09,11,52,9.60
2014,04,09,11,53,9.70
2014,04,09,11,54,9.70
2014,04,09,11,55,9.70
2014,04,09,11,56,9.70
2014,04,09,11,57,9.70
2014,04,09,11,58,9.70
2014,04,09,11,59,9.70
2014,04,09,12,00,9.70
2014,04,09,12,01,9.80
2014,04,09,12,02,9.80
2014,04,09,12,03,9.80
2014,04,09,12,04,9.90
2014,04,09,12,05,10.00
2014,04,09,12,06,10.00
2014,04,09,12,07,10.00
2014,04,09,12,08,10.00
2014,04,09,12,09,10.10
2014,04,09,12,10,10.10
2014,04,09,12,11,10.10
2014,04,09,12,12,10.10
2014,04,09,12,13,10.20
2014,04,09,12,14,10.20
2014,04,09,12,15,10.20
2014,04,09,12,16,10.20
2014,04,09,12,17,10.20
2014,04,09,12,18,10.20
2014,04,09,12,19,10.10
2014,04,09,12,20,10.10
2014,04,09,12,21,10.10
2014,04,09,12,22,10.10
2014,04,09,12,23,10.10
2014,04,09,12,24,10.10
2014,04,09,12,25,10.20
2014,04,09,12,26,10.20
2014,04,09,12,27,10.20
2014,04,09,12,28,10.20
2014,04,09,12,29,10.20
2014,04,09,12,30,10.30
2014,04,09,12,31,10.30
2014,04,09,12,32,10.30
2014,04,09,12,33,10.40
2014,04,09,12,34,10.40
2014,04,09,12,35,10.40
2014,04,09,12,36,10.40
2014,04,09,12,37,10.40
2014,04,09,12,38,10.30
2014,04,09,12,39,10.30
2014,04,09,12,40,10.30
2014,04,09,12,41,10.30
2014,04,09,12,42,10.30
2014,04,09,12,43,10.30
2014,04,09,12,44,10.30
2014,04,09,12,45,10.40
2014,04,09,12,46,10.40
2014,04,09,12,47,10.30
2014,04,09,12,48,10.30
2014,04,09,12,49,10.20
2014,04,09,12,50,10.20
2014,04,09,12,51,10.20
2014,04,09,12,52,10.20
2014,04,09,12,53,10.20
2014,04,09,12,54,10.20
2014,04,09,12,55,10.20
2014,04,09,12,56,10.20
2014,04,09,12,57,10.20
2014,04,09,12,58,10.20
2014,04,09,12,59,10.20
2014,04,09,13,00,10.20
2014,04,09,13,01,10.20
2014,04,09,13,02,10.20
2014,04,09,13,03,10.20
2014,04,09,13,04,10.30
2014,04,09,13,05,10.30
2014,04,09,13,06,10.30
2014,04,09,13,07,10.30
2014,04,09,13,08,10.30
2014,04,09,13,09,10.30
2014,04,09,13,10,10.30
2014,04,09,13,11,10.30
2014,04,09,13,12,10.30
2014,04,09,13,13,10.40
2014,04,09,13,14,10.40
2014,04,09,13,15,10.50
2014,04,09,13,16,10.50
2014,04,09,13,17,10.50
2014,04,09,13,18,10.40
2014,04,09,13,19,10.40
2014,04,09,13,20,10.40
2014,04,09,13,21,10.40
2014,04,09,13,22,10.40
2014,04,09,13,23,10.40
2014,04,09,13,24,10.40
2014,04,09,13,25,10.50
2014,04,09,13,26,10.60
2014,04,09,13,27,10.70
2014,04,09,13,28,10.70
2014,04,09,13,29,10.70
2014,04,09,13,30,10.70
2014,04,09,13,31,10.60
2014,04,09,13,32,10.60
2014,04,09,13,33,10.60
2014,04,09,13,34,10.60
2014,04,09,13,35,10.50
2014,04,09,13,36,10.50
2014,04,09,13,37,10.50
2014,04,09,13,38,10.50
2014,04,09,13,39,10.40
2014,04,09,13,40,10.40
2014,04,09,13,41,10.30
2014,04,09,13,42,10.30
2014,04,09,13,43,10.30
2014,04,09,13,44,10.30
2014,04,09,13,45,10.30
2014,04,09,13,46,10.30
2014,04,09,13,47,10.30
2014,04,09,13,48,10.30
2014,04,09,13,49,10.30
2014,04,09,13,50,10.30
2014,04,09,13,51,10.30
2014,04,09,13,52,10.30
2014,04,09,13,53,10.30
2014,04,09,13,54,10.30
2014,04,09,13,55,10.40
2014,04,09,13,56,10.40
2014,04,09,13,57,10.40
2014,04,09,13,58,10.40
2014,04,09,13,59,10.40
2014,04,09,14,00,10.40
2014,04,09,14,01,10.40
2014,04,09,14,02,10.50
2014,04,09,14,03,10.50
2014,04,09,14,04,10.60
2014,04,09,14,05,10.60
2014,04,09,14,06,10.60
2014,04,09,14,07,10.60
2014,04,09,14,08,10.50
2014,04,09,14,09,10.50
2014,04,09,14,10,10.40
2014,04,09,14,11,10.40
2014,04,09,14,12,10.30
2014,04,09,14,13,10.20
2014,04,09,14,14,10.20
2014,04,09,14,15,10.10
2014,04,09,14,16,10.00
2014,04,09,14,17,9.90
2014,04,09,14,18,9.90
2014,04,09,14,19,9.90
2014,04,09,14,20,9.90
2014,04,09,14,21,10.00
2014,04,09,14,22,10.00
2014,04,09,14,23,10.00
2014,04,09,14,24,10.00
2014,04,09,14,25,10.10
2014,04,09,14,26,10.10
2014,04,09,14,27,10.20
2014,04,09,14,28,10.20
2014,04,09,14,29,10.10
2014,04,09,14,30,10.10
2014,04,09,14,31,10.10
2014,04,09,14,32,10.10
2014,04,09,14,33,10.10
2014,04,09,14,34,10.20
2014,04,09,14,35,10.30
2014,04,09,14,36,10.40
2014,04,09,14,37,10.40
2014,04,09,14,38,10.40
2014,04,09,14,39,10.50
2014,04,09,14,40,10.50
2014,04,09,14,41,10.60
2014,04,09,14,42,10.50
2014,04,09,14,43,10.40
2014,04,09,14,44,10.40
2014,04,09,14,45,10.40
2014,04,09,14,46,10.30
2014,04,09,14,47,10.20
2014,04,09,14,48,10.20
2014,04,09,14,49,10.20
2014,04,09,14,50,10.20
2014,04,09,14,51,10.10
2014,04,09,14,52,10.10
2014,04,09,14,53,10.20
2014,04,09,14,54,10.20
2014,04,09,14,55,10.20
2014,04,09,14,56,10.20
2014,04,09,14,57,10.10
2014,04,09,14,58,10.00
2014,04,09,14,59,10.00
2014,04,09,15,00,10.00
2014,04,09,15,01,10.00
2014,04,09,15,02,10.00
2014,04,09,15,03,10.10
2014,04,09,15,04,10.10
2014,04,09,15,05,10.20
2014,04,09,15,06,10.20
2014,04,09,15,07,10.20
2014,04,09,15,08,10.20
2014,04,09,15,09,10.20
2014,04,09,15,10,10.30
2014,04,09,15,11,10.30
2014,04,09,15,12,10.30
2014,04,09,15,13,10.30
2014,04,09,15,14,10.30
2014,04,09,15,15,10.30
2014,04,09,15,16,10.30
2014,04,09,15,17,10.30
2014,04,09,15,18,10.30
2014,04,09,15,19,10.30
2014,04,09,15,20,10.30
2014,04,09,15,21,10.20
2014,04,09,15,22,10.20
2014,04,09,15,23,10.20
2014,04,09,15,24,10.20
2014,04,09,15,25,10.20
2014,04,09,15,26,10.10
2014,04,09,15,27,10.10
2014,04,09,15,28,10.10
2014,04,09,15,29,10.10
2014,04,09,15,30,10.10
2014,04,09,15,31,10.20
2014,04,09,15,32,10.20
2014,04,09,15,33,10.20
2014,04,09,15,34,10.20
2014,04,09,15,35,10.20
2014,04,09,15,36,10.20
2014,04,09,15,37,10.20
2014,04,09,15,38,10.20
2014,04,09,15,39,10.20
2014,04,09,15,40,10.20
2014,04,09,15,41,10.20
2014,04,09,15,42,10.20
2014,04,09,15,43,10.20
2014,04,09,15,44,10.10
2014,04,09,15,45,10.10
2014,04,09,15,46,10.10
2014,04,09,15,47,10.00
2014,04,09,15,48,9.90
2014,04,09,15,49,9.90
2014,04,09,15,50,9.80
2014,04,09,15,51,9.80
2014,04,09,15,52,9.80
2014,04,09,15,53,9.80
2014,04,09,15,54,9.80
2014,04,09,15,55,9.80
2014,04,09,15,56,9.80
2014,04,09,15,57,9.80
2014,04,09,15,58,9.70
2014,04,09,15,59,9.70
2014,04,09,16,00,9.60
2014,04,09,16,01,9.60
2014,04,09,16,02,9.60
2014,04,09,16,03,9.60
2014,04,09,16,04,9.60
2014,04,09,16,05,9.60
2014,04,09,16,06,9.70
2014,04,09,16,07,9.70
2014,04,09,16,08,9.70
2014,04,09,16,09,9.70
2014,04,09,16,10,9.70
2014,04,09,16,11,9.80
2014,04,09,16,12,9.80
2014,04,09,16,13,9.80
2014,04,09,16,14,9.80
2014,04,09,16,15,9.80
2014,04,09,16,16,9.80
2014,04,09,16,17,9.80
2014,04,09,16,18,9.80
2014,04,09,16,19,9.80
2014,04,09,16,20,9.90
2014,04,09,16,21,9.90
2014,04,09,16,22,10.00
2014,04,09,16,23,10.00
2014,04,09,16,24,10.00
2014,04,09,16,25,10.00
2014,04,09,16,26,10.00
2014,04,09,16,27,9.90
2014,04,09,16,28,9.90
2014,04,09,16,29,9.80
2014,04,09,16,30,9.70
2014,04,09,16,31,9.70
2014,04,09,16,32,9.70
2014,04,09,16,33,9.60
2014,04,09,16,34,9.60
2014,04,09,16,35,9.50
2014,04,09,16,36,9.50
2014,04,09,16,37,9.50
2014,04,09,16,38,9.50
2014,04,09,16,39,9.60
2014,04,09,16,40,9.60
2014,04,09,16,41,9.60
2014,04,09,16,42,9.60
2014,04,09,16,43,9.60
2014,04,09,16,44,9.50
2014,04,09,16,45,9.50
2014,04,09,16,46,9.40
2014,04,09,16,47,9.40
2014,04,09,16,48,9.30
2014,04,09,16,49,9.30
2014,04,09,16,50,9.30
2014,04,09,16,51,9.30
2014,04,09,16,52,9.30
2014,04,09,16,53,9.30
2014,04,09,16,54,9.30
2014,04,09,16,55,9.30
2014,04,09,16,56,9.30
2014,04,09,16,57,9.30
2014,04,09,16,58,9.30
2014,04,09,16,59,9.30
2014,04,09,17,00,9.20
2014,04,09,17,01,9.20
2014,04,09,17,02,9.30
2014,04,09,17,03,9.30
2014,04,09,17,04,9.30
2014,04,09,17,05,9.30
2014,04,09,17,06,9.30
2014,04,09,17,07,9.30
2014,04,09,17,08,9.30
2014,04,09,17,09,9.20
2014,04,09,17,10,9.20
2014,04,09,17,11,9.20
2014,04,09,17,12,9.20
2014,04,09,17,13,9.20
2014,04,09,17,14,9.20
2014,04,09,17,15,9.20
2014,04,09,17,16,9.20
2014,04,09,17,17,9.20
2014,04,09,17,18,9.20
2014,04,09,17,19,9.10
2014,04,09,17,20,9.10
2014,04,09,17,21,9.10
2014,04,09,17,22,9.20
2014,04,09,17,23,9.20
2014,04,09,17,24,9.20
2014,04,09,17,25,9.20
2014,04,09,17,26,9.10
2014,04,09,17,27,9.10
2014,04,09,17,28,9.10
2014,04,09,17,29,9.00
2014,04,09,17,30,9.00
2014,04,09,17,31,9.00
2014,04,09,17,32,9.00
2014,04,09,17,33,9.00
2014,04,09,17,34,8.90
2014,04,09,17,35,8.90
2014,04,09,17,36,8.90
2014,04,09,17,37,8.90
2014,04,09,17,38,8.90
2014,04,09,17,39,8.90
2014,04,09,17,40,8.90
2014,04,09,17,41,8.90
2014,04,09,17,42,8.90
2014,04,09,17,43,8.80
2014,04,09,17,44,8.80
2014,04,09,17,45,8.80
2014,04,09,17,46,8.80
2014,04,09,17,47,8.80
2014,04,09,17,48,8.90
2014,04,09,17,49,8.90
2014,04,09,17,50,8.90
2014,04,09,17,51,8.90
2014,04,09,17,52,8.90
2014,04,09,17,53,8.90
2014,04,09,17,54,8.90
2014,04,09,17,55,8.90
2014,04,09,17,56,8.90